DW6494 Weather Reports


Display with metric or nautical units.
time (UTC)temp
F
wind
direction
speed
MPH
gust
MPH
rain 1hr
in
rain 24hr
in
rain mn
in
humidity
%
barometer
mb
20260906212529 79 144 6.0 13.0 0.00 0.00 0.00 31 1018.0
20260906212029 79 136 14.0 24.0 0.00 0.00 0.00 31 1017.0
20260906211529 79 140 11.0 17.0 0.00 0.00 0.00 31 1018.0
20260906211029 80 140 12.0 21.0 0.00 0.00 0.00 31 1018.0
20260906210529 80 148 8.0 12.0 0.00 0.00 0.00 32 1018.0
20260906210029 80 151 11.0 18.0 0.00 0.00 0.00 31 1018.0
20260906205529 80 153 10.0 14.0 0.00 0.00 0.00 32 1018.0
20260906205030 80 148 8.0 13.0 0.00 0.00 0.00 32 1018.0
20260906204529 80 144 8.0 14.0 0.00 0.00 0.00 32 1018.0
20260906204029 80 153 8.0 16.0 0.00 0.00 0.00 32 1018.0
20260906203529 80 146 15.0 18.0 0.00 0.00 0.00 31 1018.0
20260906203030 80 144 13.0 18.0 0.00 0.00 0.00 31 1018.0
20260906202529 80 141 11.0 16.0 0.00 0.00 0.00 31 1018.0
20260906202030 80 143 14.0 20.0 0.00 0.00 0.00 30 1018.0
20260906201529 80 152 16.0 25.0 0.00 0.00 0.00 31 1018.0
20260906201029 80 143 12.0 20.0 0.00 0.00 0.00 31 1018.0
20260906200529 80 142 14.0 24.0 0.00 0.00 0.00 31 1018.0
20260906200029 80 153 12.0 18.0 0.00 0.00 0.00 32 1018.0
20260906195529 80 155 13.0 24.0 0.00 0.00 0.00 32 1018.0
20260906195029 80 142 9.0 15.0 0.00 0.00 0.00 33 1018.0
20260906194530 80 139 16.0 20.0 0.00 0.00 0.00 31 1018.0
20260906194029 80 148 12.0 20.0 0.00 0.00 0.00 31 1018.0
20260906193529 80 144 14.0 22.0 0.00 0.00 0.00 31 1018.0
20260906193029 79 145 13.0 23.0 0.00 0.00 0.00 31 1018.0
20260906192530 80 142 16.0 18.0 0.00 0.00 0.00 30 1019.0
20260906192029 79 134 10.0 13.0 0.00 0.00 0.00 31 1019.0
20260906191529 79 141 10.0 17.0 0.00 0.00 0.00 31 1019.0
20260906191029 79 145 16.0 24.0 0.00 0.00 0.00 30 1019.0
20260906190530 79 139 11.0 19.0 0.00 0.00 0.00 30 1019.0
20260906190029 80 149 15.0 20.0 0.00 0.00 0.00 30 1019.0
20260906185529 80 147 13.0 18.0 0.00 0.00 0.00 30 1019.0
20260906185029 80 139 18.0 26.0 0.00 0.00 0.00 29 1019.0
20260906184529 80 145 15.0 19.0 0.00 0.00 0.00 29 1019.0
20260906184029 80 142 15.0 18.0 0.00 0.00 0.00 29 1019.0
20260906183529 80 140 17.0 22.0 0.00 0.00 0.00 29 1019.0
20260906183029 80 145 12.0 20.0 0.00 0.00 0.00 30 1019.0
20260906182529 80 140 13.0 24.0 0.00 0.00 0.00 29 1019.0
20260906182030 79 145 13.0 19.0 0.00 0.00 0.00 29 1019.0
20260906181529 79 148 13.0 20.0 0.00 0.00 0.00 29 1019.0
20260906181036 79 142 15.0 25.0 0.00 0.00 0.00 29 1019.0
20260906180529 79 143 14.0 26.0 0.00 0.00 0.00 29 1020.0
20260906180029 80 148 6.0 13.0 0.00 0.00 0.00 30 1020.0
20260906175529 80 148 17.0 37.0 0.00 0.00 0.00 28 1020.0
20260906175030 80 144 13.0 18.0 0.00 0.00 0.00 29 1020.0
20260906174529 79 159 9.0 16.0 0.00 0.00 0.00 29 1020.0
20260906174030 79 141 13.0 18.0 0.00 0.00 0.00 29 1020.0
20260906173530 79 140 12.0 16.0 0.00 0.00 0.00 28 1020.0
20260906173029 79 162 11.0 15.0 0.00 0.00 0.00 28 1020.0
20260906172529 79 163 11.0 17.0 0.00 0.00 0.00 29 1020.0
20260906172029 79 156 11.0 19.0 0.00 0.00 0.00 29 1020.0
20260906171530 79 142 11.0 19.0 0.00 0.00 0.00 30 1020.0
20260906171030 78 146 9.0 12.0 0.00 0.00 0.00 30 1020.0
20260906170531 78 115 3.0 6.0 0.00 0.00 0.00 34 1020.0
20260906170030 77 145 9.0 17.0 0.00 0.00 0.00 32 1020.0
20260906165529 77 140 11.0 16.0 0.00 0.00 0.00 32 1020.0
20260906165029 76 151 8.0 9.0 0.00 0.00 0.00 34 1020.0
20260906164529 76 154 9.0 14.0 0.00 0.00 0.00 33 1020.0
20260906164030 76 152 9.0 13.0 0.00 0.00 0.00 34 1020.0
20260906163529 76 147 8.0 12.0 0.00 0.00 0.00 34 1020.0
20260906163029 75 147 12.0 13.0 0.00 0.00 0.00 33 1020.0
20260906162530 75 148 9.0 14.0 0.00 0.00 0.00 32 1020.0
20260906162029 75 151 6.0 10.0 0.00 0.00 0.00 34 1021.0
20260906161531 75 151 6.0 9.0 0.00 0.00 0.00 35 1021.0
20260906161029 76 141 9.0 13.0 0.00 0.00 0.00 33 1021.0
20260906160529 76 169 5.0 10.0 0.00 0.00 0.00 33 1021.0
20260906160029 75 155 4.0 5.0 0.00 0.00 0.00 32 1021.0
20260906155529 75 163 5.0 14.0 0.00 0.00 0.00 31 1021.0
20260906155029 74 140 6.0 14.0 0.00 0.00 0.00 32 1021.0
20260906154529 74 153 11.0 15.0 0.00 0.00 0.00 31 1021.0
20260906154029 74 151 8.0 11.0 0.00 0.00 0.00 33 1021.0
20260906153532 73 147 6.0 9.0 0.00 0.00 0.00 34 1021.0
20260906153029 73 165 6.0 12.0 0.00 0.00 0.00 33 1021.0
20260906152529 73 152 8.0 13.0 0.00 0.00 0.00 34 1021.0
20260906152029 72 104 4.0 4.0 0.00 0.00 0.00 36 1021.0
20260906151529 72 129 4.0 6.0 0.00 0.00 0.00 37 1021.0
20260906151029 72 128 9.0 12.0 0.00 0.00 0.00 37 1021.0
20260906150530 72 160 5.0 7.0 0.00 0.00 0.00 39 1021.0
20260906150029 72 149 8.0 10.0 0.00 0.00 0.00 38 1021.0
20260906145529 71 103 2.0 4.0 0.00 0.00 0.00 40 1021.0
20260906145030 71 154 1.0 6.0 0.00 0.00 0.00 41 1021.0
20260906144531 70 45 0.0 1.0 0.00 0.00 0.00 42 1021.0
20260906144029 70 165 0.0 1.0 0.00 0.00 0.00 42 1021.0
20260906143529 69 78 0.0 0.0 0.00 0.00 0.00 43 1021.0
20260906143030 69 37 1.0 3.0 0.00 0.00 0.00 42 1021.0
20260906142529 68 359 7.0 8.0 0.00 0.00 0.00 43 1021.0
20260906142029 68 23 7.0 9.0 0.00 0.00 0.00 42 1021.0
20260906141530 67 16 7.0 8.0 0.00 0.00 0.00 44 1021.0
20260906141029 67 13 9.0 10.0 0.00 0.00 0.00 45 1021.0
20260906140529 67 22 4.0 5.0 0.00 0.00 0.00 45 1021.0
20260906140029 67 360 6.0 6.0 0.00 0.00 0.00 46 1021.0
20260906135529 66 14 4.0 5.0 0.00 0.00 0.00 45 1021.0
20260906135029 66 356 5.0 5.0 0.00 0.00 0.00 45 1021.0
20260906134530 66 12 5.0 6.0 0.00 0.00 0.00 44 1021.0
20260906134029 66 355 4.0 6.0 0.00 0.00 0.00 45 1020.0
20260906133529 65 354 4.0 6.0 0.00 0.00 0.00 46 1020.0
20260906133029 64 333 0.0 0.0 0.00 0.00 0.00 46 1020.0
20260906132529 64 7 1.0 4.0 0.00 0.00 0.00 47 1020.0
20260906132028 64 355 4.0 5.0 0.00 0.00 0.00 47 1020.0
20260906131530 63 23 5.0 7.0 0.00 0.00 0.00 48 1020.0
20260906131029 63 252 2.0 4.0 0.00 0.00 0.00 50 1020.0
20260906130529 63 360 0.0 0.0 0.00 0.00 0.00 50 1020.0
20260906130030 63 360 0.0 0.0 0.00 0.00 0.00 50 1020.0
20260906125529 63 360 0.0 0.0 0.00 0.00 0.00 48 1020.0
20260906125029 63 19 0.0 0.0 0.00 0.00 0.00 49 1020.0
20260906124529 63 11 0.0 0.0 0.00 0.00 0.00 48 1020.0
20260906124029 64 3 3.0 4.0 0.00 0.00 0.00 48 1020.0
20260906123539 64 358 0.0 0.0 0.00 0.00 0.00 47 1020.0
20260906123029 64 346 0.0 0.0 0.00 0.00 0.00 46 1020.0
20260906122529 64 355 3.0 6.0 0.00 0.00 0.00 45 1020.0
20260906122029 64 351 3.0 5.0 0.00 0.00 0.00 44 1020.0
20260906121530 64 350 0.0 0.0 0.00 0.00 0.00 45 1020.0
20260906121032 63 357 5.0 9.0 0.00 0.00 0.00 46 1020.0
20260906120530 62 360 0.0 0.0 0.00 0.00 0.00 46 1020.0
20260906120029 62 30 2.0 4.0 0.00 0.00 0.00 48 1020.0
20260906115530 63 13 1.0 3.0 0.00 0.00 0.00 47 1020.0
20260906115029 63 360 0.0 0.0 0.00 0.00 0.00 46 1020.0
20260906114530 64 360 0.0 0.0 0.00 0.00 0.00 46 1020.0
20260906114029 64 360 0.0 0.0 0.00 0.00 0.00 43 1020.0
20260906113530 65 357 2.0 3.0 0.00 0.00 0.00 41 1020.0
20260906113029 65 6 1.0 2.0 0.00 0.00 0.00 43 1020.0
20260906112529 66 359 1.0 4.0 0.00 0.00 0.00 41 1020.0
20260906112034 67 319 4.0 6.0 0.00 0.00 0.00 39 1020.0
20260906111529 67 15 5.0 7.0 0.00 0.00 0.00 39 1020.0
20260906111029 67 39 5.0 6.0 0.00 0.00 0.00 40 1020.0
20260906110529 66 359 4.0 6.0 0.00 0.00 0.00 38 1020.0
20260906110029 66 155 5.0 11.0 0.00 0.00 0.00 39 1020.0
20260906105530 66 10 4.0 6.0 0.00 0.00 0.00 38 1020.0
20260906105029 65 7 6.0 8.0 0.00 0.00 0.00 39 1020.0
20260906104529 65 14 5.0 7.0 0.00 0.00 0.00 38 1020.0
20260906104028 66 351 2.0 5.0 0.00 0.00 0.00 38 1020.0
20260906103529 66 358 7.0 8.0 0.00 0.00 0.00 36 1020.0
20260906103029 66 348 5.0 6.0 0.00 0.00 0.00 35 1020.0
20260906102529 66 7 6.0 6.0 0.00 0.00 0.00 33 1020.0
20260906102029 66 3 6.0 7.0 0.00 0.00 0.00 33 1020.0
20260906101529 66 2 6.0 8.0 0.00 0.00 0.00 36 1020.0
20260906101029 66 349 8.0 9.0 0.00 0.00 0.00 35 1020.0
20260906100529 66 12 6.0 7.0 0.00 0.00 0.00 35 1020.0
20260906100029 66 349 7.0 8.0 0.00 0.00 0.00 35 1020.0
20260906095529 66 344 7.0 7.0 0.00 0.00 0.00 37 1020.0
20260906095029 67 346 6.0 7.0 0.00 0.00 0.00 36 1020.0
20260906094529 67 338 6.0 6.0 0.00 0.00 0.00 36 1020.0
20260906094029 68 354 7.0 7.0 0.00 0.00 0.00 36 1020.0
20260906093529 68 2 4.0 6.0 0.00 0.00 0.00 34 1020.0
20260906093029 68 1 5.0 5.0 0.00 0.00 0.00 35 1020.0
20260906092529 68 14 6.0 7.0 0.00 0.00 0.00 34 1020.0
20260906092030 68 91 0.0 0.0 0.00 0.00 0.00 34 1020.0
20260906091529 68 125 2.0 3.0 0.00 0.00 0.00 34 1020.0
20260906091030 68 106 3.0 4.0 0.00 0.00 0.00 34 1020.0
20260906090529 68 19 5.0 6.0 0.00 0.00 0.00 35 1020.0
20260906090029 68 52 3.0 5.0 0.00 0.00 0.00 35 1020.0
20260906085529 68 18 4.0 5.0 0.00 0.00 0.00 36 1020.0
20260906085029 67 20 5.0 7.0 0.00 0.00 0.00 36 1020.0
20260906084529 67 20 6.0 8.0 0.00 0.00 0.00 38 1020.0
20260906084030 68 13 6.0 7.0 0.00 0.00 0.00 37 1020.0
20260906083530 68 211 2.0 4.0 0.00 0.00 0.00 36 1020.0
20260906083029 68 23 9.0 10.0 0.00 0.00 0.00 37 1020.0
20260906082529 68 143 3.0 4.0 0.00 0.00 0.00 36 1020.0
20260906082029 67 46 4.0 5.0 0.00 0.00 0.00 38 1020.0
20260906081529 68 19 7.0 8.0 0.00 0.00 0.00 41 1020.0
20260906081029 68 21 7.0 7.0 0.00 0.00 0.00 41 1020.0
20260906080529 69 360 6.0 6.0 0.00 0.00 0.00 39 1020.0
20260906080029 70 219 0.0 0.0 0.00 0.00 0.00 37 1020.0
20260906075529 70 66 0.0 0.0 0.00 0.00 0.00 36 1020.0
20260906075029 70 122 5.0 8.0 0.00 0.00 0.00 35 1020.0
20260906074529 71 120 6.0 8.0 0.00 0.00 0.00 36 1020.0
20260906074030 71 138 6.0 9.0 0.00 0.00 0.00 35 1020.0
20260906073529 71 173 0.0 2.0 0.00 0.00 0.00 35 1020.0
20260906073029 72 139 3.0 4.0 0.00 0.00 0.00 33 1020.0
20260906072529 72 159 3.0 4.0 0.00 0.00 0.00 31 1020.0
20260906072029 73 173 5.0 8.0 0.00 0.00 0.00 29 1019.0
20260906071529 73 150 2.0 7.0 0.00 0.00 0.00 27 1020.0
20260906071029 73 164 4.0 8.0 0.00 0.00 0.00 25 1019.0
20260906070529 72 151 8.0 10.0 0.00 0.00 0.00 25 1019.0
20260906070029 72 137 6.0 8.0 0.00 0.00 0.00 26 1019.0
20260906065529 72 147 2.0 4.0 0.00 0.00 0.00 26 1019.0
20260906065029 73 360 0.0 0.0 0.00 0.00 0.00 25 1019.0
20260906064530 73 178 4.0 5.0 0.00 0.00 0.00 25 1019.0
20260906064031 73 142 0.0 0.0 0.00 0.00 0.00 25 1019.0
20260906063529 73 135 1.0 3.0 0.00 0.00 0.00 25 1019.0
20260906063029 73 139 4.0 5.0 0.00 0.00 0.00 25 1019.0
20260906062529 74 157 0.0 1.0 0.00 0.00 0.00 24 1019.0
20260906062029 74 145 5.0 8.0 0.00 0.00 0.00 23 1019.0
20260906061529 74 141 10.0 13.0 0.00 0.00 0.00 23 1019.0
20260906061029 74 134 2.0 5.0 0.00 0.00 0.00 23 1019.0
20260906060530 74 150 5.0 9.0 0.00 0.00 0.00 23 1019.0
20260906060029 74 152 6.0 9.0 0.00 0.00 0.00 23 1019.0
20260906055531 74 135 5.0 10.0 0.00 0.00 0.00 22 1019.0
20260906055032 75 132 7.0 8.0 0.00 0.00 0.00 22 1019.0
20260906054529 75 152 5.0 9.0 0.00 0.00 0.00 22 1019.0
20260906054029 75 155 8.0 11.0 0.00 0.00 0.00 22 1019.0
20260906053529 75 152 6.0 9.0 0.00 0.00 0.00 22 1019.0
20260906053029 75 49 1.0 4.0 0.00 0.00 0.00 24 1019.0
20260906052529 75 151 6.0 9.0 0.00 0.00 0.00 23 1019.0
20260906052029 76 160 8.0 10.0 0.00 0.00 0.00 23 1019.0
20260906051529 75 152 10.0 14.0 0.00 0.00 0.00 23 1019.0
20260906051029 75 153 7.0 11.0 0.00 0.00 0.00 25 1019.0
20260906050530 75 143 4.0 9.0 0.00 0.00 0.00 25 1019.0
20260906050029 75 141 8.0 11.0 0.00 0.00 0.00 25 1019.0
20260906045529 74 148 9.0 13.0 0.00 0.00 0.00 25 1019.0
20260906045030 74 156 5.0 8.0 0.00 0.00 0.00 26 1019.0
20260906044530 74 226 0.0 0.0 0.00 0.00 0.00 26 1019.0
20260906044029 74 9 1.0 4.0 0.00 0.00 0.00 26 1019.0
20260906043529 75 117 4.0 4.0 0.00 0.00 0.00 25 1019.0
20260906043029 75 156 5.0 5.0 0.00 0.00 0.00 25 1019.0
20260906042529 75 105 5.0 7.0 0.00 0.00 0.00 24 1019.0
20260906042029 75 117 3.0 5.0 0.00 0.00 0.00 24 1019.0
20260906041529 75 145 7.0 9.0 0.00 0.00 0.00 24 1019.0
20260906041029 76 150 7.0 9.0 0.00 0.00 0.00 24 1019.0
20260906040529 76 121 4.0 5.0 0.00 0.00 0.00 23 1019.0
20260906040029 76 119 4.0 8.0 0.00 0.00 0.00 23 1019.0
20260906035529 76 136 3.0 4.0 0.00 0.00 0.00 23 1019.0
20260906035029 76 108 4.0 6.0 0.00 0.00 0.00 23 1019.0
20260906034529 76 167 2.0 9.0 0.00 0.00 0.00 23 1019.0
20260906034030 76 80 2.0 3.0 0.00 0.00 0.00 24 1019.0
20260906033529 77 124 4.0 6.0 0.00 0.00 0.00 23 1019.0
20260906033029 77 101 5.0 10.0 0.00 0.00 0.00 23 1019.0
20260906032530 77 136 5.0 7.0 0.00 0.00 0.00 23 1018.0
20260906032030 77 98 3.0 4.0 0.00 0.00 0.00 23 1018.0
20260906031530 77 143 7.0 8.0 0.00 0.00 0.00 23 1018.0
20260906031029 77 133 4.0 7.0 0.00 0.00 0.00 24 1018.0
20260906030530 77 139 7.0 11.0 0.00 0.00 0.00 25 1018.0
20260906030029 77 117 4.0 8.0 0.00 0.00 0.00 25 1018.0
20260906025529 77 130 3.0 6.0 0.00 0.00 0.00 26 1018.0
20260906025030 77 131 4.0 8.0 0.00 0.00 0.00 26 1018.0
20260906024529 77 79 0.0 2.0 0.00 0.00 0.00 26 1018.0
20260906024029 78 105 0.0 1.0 0.00 0.00 0.00 24 1018.0
20260906023529 78 155 3.0 4.0 0.00 0.00 0.00 23 1018.0
20260906023029 79 360 0.0 0.0 0.00 0.00 0.00 21 1017.0
20260906022529 80 122 2.0 2.0 0.00 0.00 0.00 17 1017.0
20260906022032 80 119 5.0 9.0 0.00 0.00 0.00 16 1017.0
20260906021529 80 162 6.0 8.0 0.00 0.00 0.00 15 1017.0
20260906021030 80 215 4.0 4.0 0.00 0.00 0.00 15 1017.0
20260906020529 80 169 4.0 7.0 0.00 0.00 0.00 15 1017.0
20260906020029 81 168 0.0 0.0 0.00 0.00 0.00 16 1017.0
20260906015529 80 137 3.0 4.0 0.00 0.00 0.00 17 1017.0
20260906015029 81 150 0.0 0.0 0.00 0.00 0.00 16 1017.0
20260906014529 82 127 0.0 0.0 0.00 0.00 0.00 16 1017.0
20260906014029 82 163 1.0 4.0 0.00 0.00 0.00 15 1017.0
20260906013529 83 360 0.0 0.0 0.00 0.00 0.00 15 1017.0
20260906013029 83 135 0.0 0.0 0.00 0.00 0.00 16 1017.0
20260906012529 83 164 1.0 3.0 0.00 0.00 0.00 18 1017.0
20260906012030 84 161 0.0 0.0 0.00 0.00 0.00 19 1017.0
20260906011530 84 141 1.0 3.0 0.00 0.00 0.00 19 1017.0
20260906011030 84 218 1.0 3.0 0.00 0.00 0.00 17 1017.0
20260906010530 85 145 2.0 5.0 0.00 0.00 0.00 16 1017.0
20260906010029 85 360 0.0 0.0 0.00 0.00 0.00 16 1017.0
20260906005529 85 109 0.0 1.0 0.00 0.00 0.00 15 1017.0
20260906005029 85 141 3.0 4.0 0.00 0.00 0.00 14 1017.0
20260906004529 85 154 7.0 10.0 0.00 0.00 0.00 13 1017.0
20260906004030 85 146 4.0 7.0 0.00 0.00 0.00 13 1017.0
20260906003529 85 143 8.0 10.0 0.00 0.00 0.00 13 1017.0
20260906003029 85 155 6.0 8.0 0.00 0.00 0.00 14 1017.0
20260906002529 85 154 7.0 9.0 0.00 0.00 0.00 13 1017.0
20260906002031 85 142 13.0 18.0 0.00 0.00 0.00 13 1017.0
20260906001529 85 145 7.0 9.0 0.00 0.00 0.00 13 1017.0
20260906001030 85 140 4.0 6.0 0.00 0.00 0.00 13 1017.0
20260906000529 85 145 9.0 13.0 0.00 0.00 0.00 12 1017.0
20260906000029 85 161 8.0 10.0 0.00 0.00 0.00 13 1017.0
20260905235530 85 114 4.0 7.0 0.00 0.00 0.00 13 1017.0
20260905235028 85 142 4.0 7.0 0.00 0.00 0.00 13 1017.0
20260905234529 85 134 8.0 16.0 0.00 0.00 0.00 13 1017.0
20260905234029 85 153 5.0 7.0 0.00 0.00 0.00 13 1017.0
20260905233529 85 135 1.0 4.0 0.00 0.00 0.00 14 1017.0
20260905233029 85 139 9.0 13.0 0.00 0.00 0.00 12 1017.0
20260905232529 85 136 11.0 18.0 0.00 0.00 0.00 12 1018.0
20260905232029 85 124 10.0 15.0 0.00 0.00 0.00 12 1018.0
20260905231529 85 130 2.0 6.0 0.00 0.00 0.00 14 1018.0
20260905231029 85 156 3.0 6.0 0.00 0.00 0.00 13 1018.0
20260905230529 85 149 6.0 10.0 0.00 0.00 0.00 12 1018.0
20260905230030 85 169 7.0 10.0 0.00 0.00 0.00 11 1018.0
20260905225529 85 139 4.0 9.0 0.00 0.00 0.00 13 1018.0
20260905225029 85 141 5.0 7.0 0.00 0.00 0.00 12 1018.0
20260905224530 85 133 8.0 12.0 0.00 0.00 0.00 12 1018.0
20260905224029 86 136 6.0 9.0 0.00 0.00 0.00 11 1018.0
20260905223529 86 261 3.0 6.0 0.00 0.00 0.00 13 1018.0
20260905223029 86 278 1.0 4.0 0.00 0.00 0.00 12 1018.0
20260905222529 86 135 7.0 11.0 0.00 0.00 0.00 13 1018.0
20260905222029 86 152 11.0 16.0 0.00 0.00 0.00 12 1018.0
20260905221529 86 239 3.0 8.0 0.00 0.00 0.00 14 1018.0
20260905221029 85 105 2.0 5.0 0.00 0.00 0.00 13 1018.0
20260905220529 85 101 3.0 11.0 0.00 0.00 0.00 12 1018.0
20260905220030 85 118 5.0 10.0 0.00 0.00 0.00 13 1018.0
20260905215529 85 144 9.0 13.0 0.00 0.00 0.00 12 1018.0
20260905215030 84 136 12.0 19.0 0.00 0.00 0.00 13 1018.0
20260905214529 84 146 10.0 16.0 0.00 0.00 0.00 13 1018.0
20260905214030 84 144 13.0 18.0 0.00 0.00 0.00 13 1019.0
20260905213529 84 142 11.0 16.0 0.00 0.00 0.00 14 1019.0
20260905213029 84 130 7.0 12.0 0.00 0.00 0.00 16 1019.0